Time,TemperatureF,DewpointF,PressureIn,WindDirection,WindDirectionDegrees,WindSpeedMPH,WindSpeedGustMPH,Humidity,HourlyPrecipIn,Conditions,Clouds,dailyrainin,SoftwareType,DateUTC
2013-03-22 00:02:00,64.0,58.0,29.25,SSE,162,6.0,17.0,81,0.00,,,0.00,,2013-03-22 05:02:00,
2013-03-22 00:12:00,64.0,58.0,29.25,SSE,162,6.0,17.0,81,0.00,,,0.00,,2013-03-22 05:12:00,
2013-03-22 00:22:00,64.0,58.0,29.25,South,169,8.0,17.0,81,0.00,,,0.00,,2013-03-22 05:22:00,
2013-03-22 00:32:00,64.0,58.0,29.25,SSE,156,9.0,21.0,82,0.00,,,0.00,,2013-03-22 05:32:00,
2013-03-22 00:42:00,64.0,58.0,29.25,SSE,156,9.0,21.0,82,0.00,,,0.00,,2013-03-22 05:42:00,
2013-03-22 00:52:00,64.0,58.0,29.25,SSE,156,7.0,20.0,82,0.00,,,0.00,,2013-03-22 05:52:00,
2013-03-22 01:02:00,64.0,58.0,29.25,SE,136,6.0,15.0,82,0.00,,,0.00,,2013-03-22 06:02:00,
2013-03-22 01:13:00,64.0,58.0,29.25,SE,136,6.0,15.0,82,0.00,,,0.00,,2013-03-22 06:13:00,
2013-03-22 01:22:00,64.0,58.0,29.25,SE,143,6.0,22.0,82,0.00,,,0.00,,2013-03-22 06:22:00,
2013-03-22 01:32:00,64.0,59.0,29.24,SSE,148,8.0,18.0,83,0.00,,,0.00,,2013-03-22 06:32:00,
2013-03-22 01:42:00,64.0,59.0,29.24,SSE,148,8.0,18.0,83,0.00,,,0.00,,2013-03-22 06:42:00,
2013-03-22 01:52:00,64.0,59.0,29.24,SSE,158,8.0,18.0,83,0.00,,,0.00,,2013-03-22 06:52:00,
2013-03-22 02:02:00,65.0,60.0,29.24,SE,138,5.0,14.0,83,0.00,,,0.00,,2013-03-22 07:02:00,
2013-03-22 02:12:00,65.0,60.0,29.24,SE,138,5.0,14.0,83,0.00,,,0.00,,2013-03-22 07:12:00,
2013-03-22 02:22:00,65.0,60.0,29.24,SE,137,8.0,18.0,83,0.00,,,0.00,,2013-03-22 07:22:00,
2013-03-22 02:32:00,65.0,60.0,29.24,SE,138,6.0,19.0,83,0.00,,,0.00,,2013-03-22 07:32:00,
2013-03-22 02:42:00,65.0,60.0,29.24,SE,138,6.0,19.0,83,0.00,,,0.00,,2013-03-22 07:42:00,
2013-03-22 02:52:00,65.0,60.0,29.23,South,186,8.0,17.0,83,0.00,,,0.00,,2013-03-22 07:52:00,
2013-03-22 03:03:00,65.0,60.0,29.23,ESE,119,6.0,15.0,84,0.00,,,0.00,,2013-03-22 08:03:00,
2013-03-22 03:12:00,65.0,60.0,29.23,ESE,119,6.0,15.0,84,0.00,,,0.00,,2013-03-22 08:12:00,
2013-03-22 03:22:00,65.0,60.0,29.23,South,186,7.0,15.0,84,0.00,,,0.00,,2013-03-22 08:22:00,
2013-03-22 03:32:00,65.0,60.0,29.24,SSE,165,2.0,14.0,84,0.00,,,0.00,,2013-03-22 08:32:00,
2013-03-22 03:42:00,65.0,60.0,29.24,SSE,165,2.0,14.0,84,0.00,,,0.00,,2013-03-22 08:42:00,
2013-03-22 03:52:00,65.0,60.0,29.23,SSE,153,3.0,14.0,84,0.00,,,0.00,,2013-03-22 08:52:00,
2013-03-22 04:02:00,64.0,59.0,29.23,SSE,150,4.0,15.0,84,0.00,,,0.00,,2013-03-22 09:02:00,
2013-03-22 04:12:00,64.0,59.0,29.23,SSE,150,4.0,15.0,84,0.00,,,0.00,,2013-03-22 09:12:00,
2013-03-22 04:22:00,64.0,59.0,29.22,SSE,162,5.0,13.0,85,0.00,,,0.00,,2013-03-22 09:22:00,
2013-03-22 04:32:00,64.0,59.0,29.23,SSE,160,4.0,11.0,85,0.00,,,0.00,,2013-03-22 09:32:00,
2013-03-22 04:42:00,64.0,59.0,29.23,SSE,160,4.0,11.0,85,0.00,,,0.00,,2013-03-22 09:42:00,
2013-03-22 04:53:00,64.0,59.0,29.23,SE,139,4.0,12.0,85,0.00,,,0.00,,2013-03-22 09:53:00,
2013-03-22 05:03:00,64.0,59.0,29.23,SE,142,3.0,10.0,85,0.00,,,0.00,,2013-03-22 10:03:00,
2013-03-22 05:22:00,64.0,59.0,29.23,South,188,6.0,13.0,85,0.00,,,0.00,,2013-03-22 10:22:00,
2013-03-22 05:32:00,64.0,60.0,29.23,South,170,3.0,11.0,86,0.00,,,0.00,,2013-03-22 10:32:00,
2013-03-22 05:42:00,64.0,60.0,29.23,South,170,3.0,11.0,86,0.00,,,0.00,,2013-03-22 10:42:00,
2013-03-22 05:52:00,64.0,60.0,29.23,South,178,3.0,11.0,87,0.00,,,0.00,,2013-03-22 10:52:00,
2013-03-22 06:03:00,64.0,60.0,29.23,South,178,3.0,11.0,87,0.00,,,0.00,,2013-03-22 11:03:00,
2013-03-22 06:12:00,64.0,60.0,29.23,South,178,3.0,11.0,87,0.00,,,0.00,,2013-03-22 11:12:00,
2013-03-22 06:22:00,64.0,60.0,29.23,South,178,3.0,11.0,87,0.00,,,0.00,,2013-03-22 11:22:00,
2013-03-22 06:32:00,63.0,59.0,29.26,SSE,148,2.0,8.0,88,0.00,,,0.00,,2013-03-22 11:32:00,
2013-03-22 06:42:00,63.0,59.0,29.26,SSE,148,2.0,8.0,88,0.00,,,0.00,,2013-03-22 11:42:00,
2013-03-22 06:52:00,63.0,60.0,29.27,ESE,111,1.0,3.0,89,0.00,,,0.00,,2013-03-22 11:52:00,
2013-03-22 07:02:00,62.0,59.0,29.29,SE,138,1.0,3.0,90,0.00,,,0.00,,2013-03-22 12:02:00,
2013-03-22 07:12:00,62.0,59.0,29.29,SE,138,1.0,3.0,90,0.00,,,0.00,,2013-03-22 12:12:00,
2013-03-22 07:22:00,61.0,58.0,29.29,SSE,151,0.0,1.0,91,0.00,,,0.00,,2013-03-22 12:22:00,
2013-03-22 07:32:00,60.0,58.0,29.30,SSE,151,0.0,1.0,92,0.00,,,0.00,,2013-03-22 12:32:00,
2013-03-22 07:42:00,60.0,58.0,29.30,SSE,151,0.0,1.0,92,0.00,,,0.00,,2013-03-22 12:42:00,
2013-03-22 07:52:00,60.0,58.0,29.31,SSE,151,0.0,0.0,92,0.00,,,0.00,,2013-03-22 12:52:00,
2013-03-22 08:02:00,59.0,57.0,29.32,SSE,151,0.0,0.0,94,0.00,,,0.00,,2013-03-22 13:02:00,
2013-03-22 08:12:00,59.0,57.0,29.32,SSE,151,0.0,0.0,94,0.00,,,0.00,,2013-03-22 13:12:00,
2013-03-22 08:22:00,59.0,58.0,29.33,SSE,151,0.0,0.0,95,0.00,,,0.00,,2013-03-22 13:22:00,
2013-03-22 08:32:00,56.0,48.0,29.35,North,350,5.0,12.0,74,0.00,,,0.00,,2013-03-22 13:32:00,
2013-03-22 08:42:00,56.0,48.0,29.35,North,350,5.0,12.0,74,0.00,,,0.00,,2013-03-22 13:42:00,
2013-03-22 08:52:00,52.0,44.0,29.37,NW,314,4.0,13.0,75,0.00,,,0.00,,2013-03-22 13:52:00,
2013-03-22 09:02:00,51.0,43.0,29.39,NW,321,5.0,13.0,75,0.00,,,0.00,,2013-03-22 14:02:00,
2013-03-22 09:12:00,51.0,43.0,29.39,NW,321,5.0,13.0,75,0.00,,,0.00,,2013-03-22 14:12:00,
2013-03-22 09:22:00,50.0,43.0,29.40,WNW,286,5.0,15.0,78,0.00,,,0.00,,2013-03-22 14:22:00,
2013-03-22 09:32:00,49.0,43.0,29.41,NW,316,4.0,13.0,79,0.00,,,0.00,,2013-03-22 14:32:00,
2013-03-22 09:42:00,49.0,43.0,29.41,NW,316,4.0,13.0,79,0.00,,,0.00,,2013-03-22 14:42:00,
2013-03-22 09:52:00,49.0,43.0,29.41,NNW,346,4.0,10.0,80,0.00,,,0.00,,2013-03-22 14:52:00,
2013-03-22 10:02:00,50.0,44.0,29.42,NW,322,3.0,10.0,80,0.00,,,0.00,,2013-03-22 15:02:00,
2013-03-22 10:12:00,50.0,44.0,29.42,NW,322,3.0,10.0,80,0.00,,,0.00,,2013-03-22 15:12:00,
2013-03-22 10:22:00,49.0,43.0,29.42,NNE,32,4.0,12.0,80,0.00,,,0.00,,2013-03-22 15:22:00,
2013-03-22 10:32:00,49.0,43.0,29.43,North,9,6.0,11.0,81,0.00,,,0.00,,2013-03-22 15:32:00,
2013-03-22 10:42:00,49.0,43.0,29.43,North,9,6.0,11.0,81,0.00,,,0.00,,2013-03-22 15:42:00,
2013-03-22 10:53:00,50.0,44.0,29.43,NNW,340,4.0,12.0,80,0.00,,,0.00,,2013-03-22 15:53:00,
2013-03-22 11:02:00,50.0,44.0,29.44,West,275,4.0,11.0,80,0.00,,,0.00,,2013-03-22 16:02:00,
2013-03-22 11:13:00,50.0,44.0,29.44,NW,321,4.0,11.0,79,0.00,,,0.00,,2013-03-22 16:13:00,
2013-03-22 11:22:00,50.0,44.0,29.44,NW,321,4.0,11.0,79,0.00,,,0.00,,2013-03-22 16:22:00,
2013-03-22 11:32:00,50.0,44.0,29.44,North,350,6.0,12.0,80,0.00,,,0.00,,2013-03-22 16:32:00,
2013-03-22 11:42:00,50.0,44.0,29.44,North,350,6.0,12.0,80,0.00,,,0.00,,2013-03-22 16:42:00,
2013-03-22 11:52:00,50.0,44.0,29.44,NW,321,5.0,11.0,80,0.00,,,0.00,,2013-03-22 16:52:00,
2013-03-22 12:03:00,49.0,43.0,29.44,NNW,338,5.0,11.0,81,0.00,,,0.00,,2013-03-22 17:03:00,
2013-03-22 12:12:00,50.0,44.0,29.44,North,11,5.0,11.0,81,0.00,,,0.00,,2013-03-22 17:12:00,
2013-03-22 12:23:00,50.0,44.0,29.44,North,11,5.0,11.0,81,0.00,,,0.00,,2013-03-22 17:23:00,
2013-03-22 12:32:00,49.0,44.0,29.45,North,351,7.0,14.0,83,0.00,,,0.00,,2013-03-22 17:32:00,
2013-03-22 12:42:00,49.0,44.0,29.45,North,351,7.0,14.0,83,0.00,,,0.00,,2013-03-22 17:42:00,
2013-03-22 12:53:00,49.0,44.0,29.46,NNW,336,2.0,13.0,84,0.00,,,0.00,,2013-03-22 17:53:00,
2013-03-22 13:02:00,48.0,44.0,29.46,WNW,303,5.0,12.0,85,0.00,,,0.00,,2013-03-22 18:02:00,
2013-03-22 13:12:00,48.0,44.0,29.46,WNW,303,5.0,12.0,85,0.00,,,0.00,,2013-03-22 18:12:00,
2013-03-22 13:22:00,48.0,44.0,29.47,NW,307,4.0,12.0,86,0.00,,,0.00,,2013-03-22 18:22:00,
2013-03-22 13:33:00,48.0,44.0,29.46,NW,324,3.0,11.0,85,0.00,,,0.00,,2013-03-22 18:33:00,
2013-03-22 13:42:00,48.0,44.0,29.46,NW,324,3.0,11.0,85,0.00,,,0.00,,2013-03-22 18:42:00,
2013-03-22 13:52:00,49.0,45.0,29.47,NW,319,4.0,8.0,85,0.00,,,0.00,,2013-03-22 18:52:00,
2013-03-22 14:02:00,49.0,45.0,29.47,WNW,299,2.0,9.0,86,0.00,,,0.00,,2013-03-22 19:02:00,
2013-03-22 14:12:00,49.0,45.0,29.47,WNW,299,2.0,9.0,86,0.00,,,0.00,,2013-03-22 19:12:00,
2013-03-22 14:22:00,49.0,45.0,29.46,NW,315,4.0,10.0,85,0.00,,,0.00,,2013-03-22 19:22:00,
2013-03-22 14:32:00,48.0,44.0,29.45,WNW,289,4.0,10.0,86,0.00,,,0.00,,2013-03-22 19:32:00,
2013-03-22 14:42:00,48.0,44.0,29.45,WNW,289,4.0,10.0,86,0.00,,,0.00,,2013-03-22 19:42:00,
2013-03-22 14:52:00,48.0,44.0,29.45,West,275,5.0,10.0,86,0.00,,,0.00,,2013-03-22 19:52:00,
2013-03-22 15:02:00,48.0,44.0,29.44,WNW,297,4.0,11.0,85,0.00,,,0.00,,2013-03-22 20:02:00,
2013-03-22 15:12:00,48.0,44.0,29.44,WNW,297,4.0,11.0,85,0.00,,,0.00,,2013-03-22 20:12:00,
2013-03-22 15:22:00,49.0,44.0,29.44,NW,321,3.0,12.0,84,0.00,,,0.00,,2013-03-22 20:22:00,
2013-03-22 15:32:00,49.0,44.0,29.44,NW,311,5.0,13.0,84,0.00,,,0.00,,2013-03-22 20:32:00,
2013-03-22 15:42:00,49.0,44.0,29.44,NW,311,5.0,13.0,84,0.00,,,0.00,,2013-03-22 20:42:00,
2013-03-22 15:52:00,49.0,44.0,29.43,NNW,331,5.0,13.0,84,0.00,,,0.00,,2013-03-22 20:52:00,
2013-03-22 16:03:00,48.0,44.0,29.43,NE,35,5.0,12.0,85,0.00,,,0.00,,2013-03-22 21:03:00,
2013-03-22 16:12:00,49.0,44.0,29.44,North,11,3.0,12.0,84,0.00,,,0.00,,2013-03-22 21:12:00,
2013-03-22 16:22:00,49.0,44.0,29.44,North,11,3.0,12.0,84,0.00,,,0.00,,2013-03-22 21:22:00,
2013-03-22 16:32:00,49.0,44.0,29.45,WNW,299,3.0,11.0,84,0.00,,,0.00,,2013-03-22 21:32:00,
2013-03-22 16:43:00,49.0,44.0,29.45,WNW,299,3.0,11.0,84,0.00,,,0.00,,2013-03-22 21:43:00,
2013-03-22 16:53:00,48.0,44.0,29.45,WNW,298,3.0,10.0,85,0.00,,,0.00,,2013-03-22 21:53:00,
2013-03-22 17:03:00,48.0,43.0,29.45,NW,311,3.0,9.0,84,0.00,,,0.00,,2013-03-22 22:03:00,
2013-03-22 17:12:00,48.0,43.0,29.45,NW,311,3.0,9.0,84,0.00,,,0.00,,2013-03-22 22:12:00,
2013-03-22 17:23:00,48.0,43.0,29.45,NW,306,3.0,8.0,84,0.00,,,0.00,,2013-03-22 22:23:00,
2013-03-22 17:32:00,48.0,43.0,29.46,NNW,328,4.0,11.0,84,0.00,,,0.00,,2013-03-22 22:32:00,
2013-03-22 17:42:00,48.0,43.0,29.46,NNW,328,4.0,11.0,84,0.00,,,0.00,,2013-03-22 22:42:00,
2013-03-22 17:53:00,48.0,44.0,29.46,NW,325,1.0,7.0,85,0.00,,,0.00,,2013-03-22 22:53:00,
2013-03-22 18:02:00,48.0,43.0,29.47,WNW,298,2.0,8.0,84,0.00,,,0.00,,2013-03-22 23:02:00,
2013-03-22 18:12:00,48.0,43.0,29.47,WNW,298,2.0,8.0,84,0.00,,,0.00,,2013-03-22 23:12:00,
2013-03-22 18:22:00,48.0,44.0,29.47,WNW,299,2.0,6.0,85,0.00,,,0.00,,2013-03-22 23:22:00,
2013-03-22 18:32:00,48.0,44.0,29.47,WNW,288,3.0,6.0,85,0.00,,,0.00,,2013-03-22 23:32:00,
2013-03-22 18:42:00,48.0,44.0,29.47,WNW,288,3.0,6.0,85,0.00,,,0.00,,2013-03-22 23:42:00,
2013-03-22 18:52:00,47.0,43.0,29.47,WNW,301,2.0,7.0,87,0.00,,,0.00,,2013-03-22 23:52:00,
2013-03-22 19:02:00,47.0,44.0,29.47,WNW,297,3.0,7.0,89,0.00,,,0.00,,2013-03-23 00:02:00,
2013-03-22 19:12:00,47.0,44.0,29.47,WNW,297,3.0,7.0,89,0.00,,,0.00,,2013-03-23 00:12:00,
2013-03-22 19:23:00,47.0,44.0,29.47,NNW,342,2.0,8.0,89,0.00,,,0.00,,2013-03-23 00:23:00,
2013-03-22 19:32:00,47.0,44.0,29.48,North,360,1.0,7.0,90,0.00,,,0.00,,2013-03-23 00:32:00,
2013-03-22 19:42:00,47.0,44.0,29.48,North,360,1.0,7.0,90,0.00,,,0.00,,2013-03-23 00:42:00,
2013-03-22 19:52:00,47.0,44.0,29.48,NW,313,2.0,5.0,90,0.00,,,0.00,,2013-03-23 00:52:00,
2013-03-22 20:03:00,46.0,44.0,29.48,NW,320,1.0,5.0,92,0.00,,,0.00,,2013-03-23 01:03:00,
2013-03-22 20:12:00,46.0,44.0,29.48,NW,320,1.0,5.0,92,0.00,,,0.00,,2013-03-23 01:12:00,
2013-03-22 20:22:00,46.0,44.0,29.47,NNE,28,1.0,5.0,92,0.00,,,0.00,,2013-03-23 01:22:00,
2013-03-22 20:32:00,46.0,44.0,29.48,NW,322,0.0,5.0,93,0.00,,,0.00,,2013-03-23 01:32:00,
2013-03-22 20:42:00,46.0,44.0,29.48,NW,322,0.0,5.0,93,0.00,,,0.00,,2013-03-23 01:42:00,
2013-03-22 20:52:00,46.0,44.0,29.48,NNE,31,0.0,5.0,92,0.00,,,0.00,,2013-03-23 01:52:00,
2013-03-22 21:02:00,46.0,44.0,29.47,NNE,22,0.0,7.0,91,0.00,,,0.00,,2013-03-23 02:02:00,
2013-03-22 21:12:00,46.0,44.0,29.47,NNE,22,0.0,7.0,91,0.00,,,0.00,,2013-03-23 02:12:00,
2013-03-22 21:22:00,46.0,44.0,29.48,North,350,2.0,5.0,91,0.00,,,0.00,,2013-03-23 02:22:00,
2013-03-22 21:32:00,47.0,44.0,29.49,North,355,1.0,5.0,90,0.00,,,0.00,,2013-03-23 02:32:00,
2013-03-22 21:42:00,47.0,44.0,29.49,North,355,1.0,5.0,90,0.00,,,0.00,,2013-03-23 02:42:00,
2013-03-22 21:52:00,47.0,44.0,29.50,WNW,292,2.0,6.0,90,0.00,,,0.00,,2013-03-23 02:52:00,
2013-03-22 22:02:00,47.0,44.0,29.51,WNW,294,2.0,7.0,90,0.00,,,0.00,,2013-03-23 03:02:00,
2013-03-22 22:12:00,47.0,44.0,29.51,WNW,294,2.0,7.0,90,0.00,,,0.00,,2013-03-23 03:12:00,
2013-03-22 22:22:00,47.0,44.0,29.52,WNW,290,4.0,8.0,90,0.00,,,0.00,,2013-03-23 03:22:00,
2013-03-22 22:33:00,47.0,44.0,29.52,WNW,290,4.0,8.0,90,0.00,,,0.00,,2013-03-23 03:33:00,
2013-03-22 22:43:00,47.0,44.0,29.52,WNW,290,4.0,8.0,90,0.00,,,0.00,,2013-03-23 03:43:00,
2013-03-22 22:53:00,47.0,44.0,29.52,NNE,30,2.0,7.0,90,0.00,,,0.00,,2013-03-23 03:53:00,
2013-03-22 23:02:00,47.0,44.0,29.52,NW,313,1.0,6.0,90,0.00,,,0.00,,2013-03-23 04:02:00,
2013-03-22 23:12:00,47.0,44.0,29.52,NW,313,1.0,6.0,90,0.00,,,0.00,,2013-03-23 04:12:00,
2013-03-22 23:23:00,47.0,44.0,29.51,NNW,336,2.0,7.0,89,0.00,,,0.00,,2013-03-23 04:23:00,
2013-03-22 23:32:00,47.0,44.0,29.51,North,5,2.0,7.0,89,0.00,,,0.00,,2013-03-23 04:32:00,
2013-03-22 23:43:00,47.0,44.0,29.51,North,5,2.0,7.0,89,0.00,,,0.00,,2013-03-23 04:43:00,
2013-03-22 23:53:00,47.0,44.0,29.51,North,5,2.0,10.0,90,0.00,,,0.00,,2013-03-23 04:53:00,